Weather History for KFFC - February, 2013

Change the Weather History Date:

Tuesday, February 5, 2013

  Actual Average Record
Temperature  
Mean Temperature 46 °F 45 °F  
Max Temperature 62 °F 56 °F - ()
Min Temperature 30 °F 34 °F - ()
Degree Days  
Heating Degree Days 19 20  
Month to date heating degree days 102  
Since 1 July heating degree days 1971  
Cooling Degree Days 0 0  
Month to date cooling degree days 0  
Year to date cooling degree days 0  
Moisture  
Dew Point 42 °F    
Average Humidity 79    
Maximum Humidity 96    
Minimum Humidity 60    
Precipitation  
Precipitation 0.00 in 0.15 in - ()
Month to date precipitation 0.76  
Year to date precipitation 4.96  
Sea Level Pressure  
Sea Level Pressure 30.03 in    
Wind  
Wind Speed 1 mph (NW)    
Max Wind Speed 10 mph    
Max Gust Speed 16 mph    
Visibility 8 miles    
Events Rain    
T = Trace of Precipitation, MM = Missing Value Source: NWS Daily Summary

Daily Weather History Graph

Daily Weather History Graph

Search for Another Location

Airport or City:

Trip Planner

Search our weather history database for the weather conditions in past years. The results will help you decide how hot, cold, wet, or windy it might be!

Date:

Astronomy

Feb. 05, 2013 Rise Set
Actual Time 7:30 AM EST 6:14 PM EST
Civil Twilight 7:05 AM EST 6:39 PM EST
Nautical Twilight 6:35 AM EST 7:09 PM EST
Astronomical Twilight 6:06 AM EST 7:38 PM EST
Moon 3:06 AM EST (2/5) 1:36 PM EST (2/5)
Length of Visible Light 11h 34m
Length of Day
10h 43m
Waning Crescent, 27% of the Moon is Illuminated
Feb 5
Waning Crescent
Feb 10
New
Feb 17
First Quarter
Feb 25
Full
Mar 4
Last Quarter

Hourly Weather History & Observations

Time (EST) Temp. Dew Point Humidity Pressure Visibility Wind Dir Wind Speed Gust Speed Precip Events Conditions
12:53 AM 39.0 °F 34.0 °F 82% 30.02 in 9.0 mi Calm Calm - N/A   Overcast
1:53 AM 37.0 °F 33.1 °F 86% 30.02 in 8.0 mi Calm Calm - N/A   Scattered Clouds
2:53 AM 35.1 °F 32.0 °F 89% 30.01 in 8.0 mi Calm Calm - N/A   Scattered Clouds
3:53 AM 34.0 °F 30.9 °F 89% 30.01 in 8.0 mi Calm Calm - N/A   Partly Cloudy
4:53 AM 32.0 °F 30.0 °F 92% 29.99 in 7.0 mi Calm Calm - N/A   Clear
5:53 AM 30.9 °F 30.0 °F 96% 30.01 in 7.0 mi Calm Calm - N/A   Partly Cloudy
6:53 AM 34.0 °F 32.0 °F 92% 30.03 in 7.0 mi Calm Calm - N/A   Overcast
7:53 AM 36.0 °F 33.1 °F 89% 30.04 in 7.0 mi Calm Calm - N/A   Overcast
8:53 AM 41.0 °F 36.0 °F 82% 30.06 in 7.0 mi Calm Calm - N/A   Overcast
9:53 AM 50.0 °F 39.9 °F 68% 30.06 in 8.0 mi Calm Calm - N/A   Overcast
10:53 AM 57.9 °F 45.0 °F 62% 30.06 in 9.0 mi West 6.9 mph - N/A   Overcast
11:53 AM 59.0 °F 46.9 °F 64% 30.05 in 9.0 mi WNW 8.1 mph 16.1 mph N/A   Mostly Cloudy
12:53 PM 60.1 °F 46.9 °F 62% 30.04 in 9.0 mi NW 10.4 mph - N/A   Overcast
1:53 PM 61.0 °F 46.9 °F 60% 30.01 in 8.0 mi WNW 4.6 mph - N/A   Overcast
2:53 PM 62.1 °F 48.0 °F 60% 30.00 in 9.0 mi NNW 4.6 mph - N/A   Overcast
3:53 PM 62.1 °F 48.0 °F 60% 30.00 in 9.0 mi NW 4.6 mph - 0.00 in   Overcast
4:53 PM 62.1 °F 48.9 °F 62% 30.00 in 9.0 mi West 3.5 mph - 0.00 in   Mostly Cloudy
5:53 PM 61.0 °F 48.9 °F 64% 29.99 in 10.0 mi Calm Calm - N/A   Overcast
6:53 PM 57.0 °F 50.0 °F 77% 30.01 in 9.0 mi Calm Calm - 0.00 in Rain Light Rain
7:53 PM 54.0 °F 50.0 °F 86% 30.01 in 9.0 mi Calm Calm - 0.00 in   Mostly Cloudy
8:53 PM 51.1 °F 48.0 °F 89% 30.04 in 7.0 mi Calm Calm - N/A   Mostly Cloudy
9:53 PM 48.9 °F 46.9 °F 93% 30.06 in 5.0 mi Calm Calm - N/A   Mostly Cloudy
10:53 PM 48.0 °F 46.0 °F 93% 30.06 in 4.0 mi Calm Calm - N/A   Mostly Cloudy
11:53 PM 46.9 °F 45.0 °F 93% 30.05 in 5.0 mi Calm Calm - N/A   Mostly Cloudy